Murray, KY

9:28 PM CDT on May 27, 2018 (GMT -0500)
Kyle-Oakley

Weather History for KCEY - December, 2012

Change the Weather History Date:

Thursday, December 6, 2012

  Actual Average (WUND) Record (WUND)
Temperature  
Mean Temperature 47 °F -  
Max Temperature 53 °F - - (-1)
Min Temperature 41 °F - - (-1)
Degree Days  
Heating Degree Days 18    
Moisture  
Dew Point 44 °F    
Average Humidity 86    
Maximum Humidity 100    
Minimum Humidity 70    
Precipitation  
Precipitation 0.00 in - - ()
Sea Level Pressure  
Sea Level Pressure 30.05 in    
Wind  
Wind Speed 5 mph (SE)    
Max Wind Speed 8 mph    
Max Gust Speed -    
Visibility 9 miles    
Events      
Averages and records for this station are not official NWS values.
T = Trace of Precipitation, MM = Missing Value Source: NWS Daily Summary

Daily Weather History Graph

Daily Weather History Graph

Search for Another Location

Airport or City:

Astronomy

Dec. 06, 2012 Rise Set
Actual Time 6:52 AM CST 4:37 PM CST
Civil Twilight 6:23 AM CST 5:05 PM CST
Nautical Twilight 5:51 AM CST 5:38 PM CST
Astronomical Twilight 5:19 AM CST 6:09 PM CST
Moon No Moon Rise 11:53 AM CST (12/6)
Length of Visible Light 10h 42m
Length of Day
9h 45m
Waning Gibbous, 49% of the Moon is Illuminated
Dec 6
Waning Gibbous
Dec 13
New
Dec 19
First Quarter
Dec 28
Full
Jan 4
Last Quarter

Hourly Weather History & Observations

Time (CST) Temp. Windchill Dew Point Humidity Pressure Visibility Wind Dir Wind Speed Gust Speed Precip Events Conditions
12:15 AM 41.0 °F 37.1 °F 33.8 °F 76% 30.14 in 10.0 mi East 5.8 mph - N/A   Clear
12:35 AM 41.0 °F 36.4 °F 33.8 °F 76% 30.13 in 10.0 mi East 6.9 mph - N/A   Clear
12:55 AM 41.0 °F 36.4 °F 33.8 °F 76% 30.12 in 10.0 mi East 6.9 mph - N/A   Clear
1:15 AM 41.0 °F 35.8 °F 33.8 °F 76% 30.12 in 10.0 mi East 8.1 mph - N/A   Clear
1:35 AM 41.0 °F 36.4 °F 33.8 °F 76% 30.12 in 10.0 mi East 6.9 mph - N/A   Clear
1:55 AM 41.0 °F 37.1 °F 32.0 °F 70% 30.12 in 10.0 mi East 5.8 mph - N/A   Clear
2:15 AM 41.0 °F 38.0 °F 33.8 °F 76% 30.12 in 10.0 mi East 4.6 mph - N/A   Scattered Clouds
2:35 AM 41.0 °F 37.1 °F 33.8 °F 76% 30.12 in 10.0 mi East 5.8 mph - N/A   Partly Cloudy
2:55 AM 41.0 °F 36.4 °F 33.8 °F 76% 30.11 in 10.0 mi East 6.9 mph - N/A   Clear
3:15 AM 41.0 °F 37.1 °F 32.0 °F 70% 30.11 in 10.0 mi East 5.8 mph - N/A   Clear
3:35 AM 41.0 °F 37.1 °F 33.8 °F 76% 30.10 in 10.0 mi ESE 5.8 mph - N/A   Clear
3:55 AM 41.0 °F 37.1 °F 33.8 °F 76% 30.10 in 10.0 mi ESE 5.8 mph - N/A   Mostly Cloudy
4:15 AM 41.0 °F 37.1 °F 33.8 °F 76% 30.10 in 10.0 mi ESE 5.8 mph - N/A   Overcast
4:35 AM 41.0 °F 37.1 °F 33.8 °F 76% 30.10 in 10.0 mi ESE 5.8 mph - N/A   Overcast
4:55 AM 41.0 °F 38.0 °F 35.6 °F 81% 30.09 in 10.0 mi East 4.6 mph - N/A   Mostly Cloudy
5:15 AM 41.0 °F 38.0 °F 35.6 °F 81% 30.10 in 10.0 mi East 4.6 mph - N/A   Overcast
5:35 AM 41.0 °F 38.0 °F 35.6 °F 81% 30.10 in 10.0 mi ESE 4.6 mph - N/A   Overcast
5:55 AM 42.8 °F 41.1 °F 35.6 °F 76% 30.10 in 10.0 mi ESE 3.5 mph - N/A   Overcast
6:15 AM 42.8 °F 39.3 °F 35.6 °F 76% 30.09 in 10.0 mi ESE 5.8 mph - N/A   Overcast
6:35 AM 42.8 °F 39.3 °F 35.6 °F 76% 30.09 in 10.0 mi ESE 5.8 mph - N/A   Overcast
6:55 AM 42.8 °F 39.3 °F 35.6 °F 76% 30.09 in 10.0 mi SE 5.8 mph - N/A   Overcast
7:15 AM 44.6 °F 41.4 °F 35.6 °F 71% 30.09 in 10.0 mi SE 5.8 mph - N/A   Overcast
7:55 AM 44.6 °F 42.2 °F 37.4 °F 76% 30.09 in 10.0 mi SE 4.6 mph - N/A   Overcast
8:15 AM 44.6 °F 42.2 °F 39.2 °F 81% 30.10 in 10.0 mi SE 4.6 mph - N/A   Overcast
8:35 AM 46.4 °F 45.2 °F 39.2 °F 76% 30.10 in 10.0 mi SE 3.5 mph - N/A   Overcast
8:55 AM 46.4 °F 45.2 °F 41.0 °F 81% 30.10 in 10.0 mi SE 3.5 mph - N/A   Overcast
9:15 AM 46.4 °F 43.5 °F 41.0 °F 81% 30.09 in 10.0 mi SE 5.8 mph - N/A   Overcast
9:35 AM 46.4 °F 44.3 °F 41.0 °F 81% 30.10 in 10.0 mi SSE 4.6 mph - N/A   Overcast
9:55 AM 48.2 °F - 42.8 °F 82% 30.10 in 10.0 mi SSE 4.6 mph - N/A   Overcast
10:15 AM 48.2 °F - 44.6 °F 87% 30.09 in 10.0 mi South 4.6 mph - N/A   Overcast
10:35 AM 48.2 °F - 44.6 °F 87% 30.08 in 10.0 mi SSE 4.6 mph - N/A   Overcast
10:55 AM 48.2 °F - 44.6 °F 87% 30.07 in 10.0 mi SSE 3.5 mph - N/A   Overcast
11:15 AM 50.0 °F - 46.4 °F 87% 30.06 in 10.0 mi SE 4.6 mph - N/A   Overcast
11:35 AM 50.0 °F - 46.4 °F 87% 30.05 in 10.0 mi SSE 3.5 mph - N/A   Overcast
11:55 AM 50.0 °F - 46.4 °F 87% 30.04 in 10.0 mi SSE 4.6 mph - N/A   Overcast
12:15 PM 51.8 °F - 46.4 °F 82% 30.03 in 10.0 mi SSE 4.6 mph - N/A   Overcast
12:35 PM 51.8 °F - 46.4 °F 82% 30.02 in 10.0 mi SE 5.8 mph - N/A   Overcast
12:55 PM 51.8 °F - 46.4 °F 82% 30.02 in 10.0 mi SE 4.6 mph - N/A   Overcast
1:15 PM 51.8 °F - 46.4 °F 82% 30.01 in 10.0 mi SSE 4.6 mph - N/A   Overcast
1:35 PM 53.6 °F - 46.4 °F 77% 30.00 in 10.0 mi SE 3.5 mph - N/A   Overcast
1:55 PM 53.6 °F - 46.4 °F 77% 30.00 in 10.0 mi South 3.5 mph - N/A   Overcast
2:15 PM 53.6 °F - 46.4 °F 77% 30.00 in 10.0 mi SSE 4.6 mph - N/A   Overcast
2:35 PM 53.6 °F - 48.2 °F 82% 30.00 in 10.0 mi Calm Calm - N/A   Mostly Cloudy
2:55 PM 53.6 °F - 50.0 °F 88% 30.00 in 10.0 mi SSE 3.5 mph - N/A   Mostly Cloudy
3:15 PM 53.6 °F - 50.0 °F 88% 30.00 in 5.0 mi Calm Calm - N/A   Overcast
3:35 PM 51.8 °F - 50.0 °F 94% 30.00 in 2.0 mi Calm Calm - N/A   Overcast
3:55 PM 51.8 °F - 50.0 °F 94% 30.01 in 3.0 mi Calm Calm - N/A   Overcast
4:15 PM 51.8 °F - 51.8 °F 100% 30.00 in 2.0 mi Calm Calm - N/A   Overcast
4:35 PM 51.8 °F - 51.8 °F 100% 30.00 in 1.5 mi Calm Calm - N/A   Overcast
4:55 PM 51.8 °F - 51.8 °F 100% 30.00 in 2.0 mi Calm Calm - N/A   Overcast
5:15 PM 50.0 °F - 50.0 °F 100% 30.00 in 6.0 mi Calm Calm - N/A   Overcast
5:35 PM 50.0 °F - 50.0 °F 100% 29.99 in 5.0 mi SE 3.5 mph - N/A   Overcast
5:55 PM 51.8 °F - 50.0 °F 94% 29.99 in 3.0 mi ESE 3.5 mph - N/A   Overcast
6:15 PM 50.0 °F - 50.0 °F 100% 29.99 in 7.0 mi SE 3.5 mph - N/A   Overcast
6:35 PM 50.0 °F - 50.0 °F 100% 29.99 in 9.0 mi SE 3.5 mph - N/A   Overcast
6:55 PM 50.0 °F - 50.0 °F 100% 29.99 in 10.0 mi SE 4.6 mph - N/A   Overcast
7:15 PM 50.0 °F - 50.0 °F 100% 29.99 in 10.0 mi SE 3.5 mph - N/A   Overcast
7:35 PM 50.0 °F - 50.0 °F 100% 29.99 in 10.0 mi SE 3.5 mph - N/A   Overcast
7:55 PM 50.0 °F - 50.0 °F 100% 29.99 in 10.0 mi SE 3.5 mph - N/A   Overcast
8:35 PM 51.8 °F - 50.0 °F 94% 29.99 in 10.0 mi SSE 4.6 mph - N/A   Overcast
8:55 PM 51.8 °F - 50.0 °F 94% 29.99 in 10.0 mi SSE 3.5 mph - N/A   Overcast
9:15 PM 51.8 °F - 50.0 °F 94% 29.99 in 10.0 mi SSE 3.5 mph - N/A   Overcast
9:35 PM 51.8 °F - 50.0 °F 94% 29.99 in 10.0 mi South 3.5 mph - N/A   Overcast
9:55 PM 53.6 °F - 50.0 °F 88% 29.98 in 10.0 mi Calm Calm - N/A   Overcast
10:15 PM 51.8 °F - 50.0 °F 94% 29.98 in 10.0 mi SSE 3.5 mph - N/A   Overcast
10:35 PM 51.8 °F - 50.0 °F 94% 29.97 in 10.0 mi SE 3.5 mph - N/A   Overcast
10:55 PM 51.8 °F - 51.8 °F 100% 29.97 in 8.0 mi Calm Calm - N/A   Overcast
11:15 PM 51.8 °F - 51.8 °F 100% 29.97 in 6.0 mi SE 3.5 mph - N/A   Overcast
11:35 PM 51.8 °F - 51.8 °F 100% 29.96 in 3.0 mi SSE 3.5 mph - N/A   Overcast
11:55 PM 53.6 °F - 53.6 °F 100% 29.96 in 0.8 mi South 3.5 mph - N/A   Overcast